Tracking 35331 objects as of 15-Sep-2026
HD Live streaming from Space Station
objects crossing your sky now

METEOR 2-8 DEB

Track METEOR 2-8 DEB now!
10-day predictions


NORAD ID: 36327
Int'l Code: 1982-025M
Launch date: March 25, 1982
Source: Commonwealth of Independent States (former USSR) (CIS)
Launch site: PLESETSK MISSILE AND SPACE COMPLEX (PKMTR)

Note: This is SATELLITE DEBRIS
Your satellite tracking list
Your tracking list is empty




NASA's NSSDC Master Catalog

Two Line Element Set (TLE):
1 36327U 82025M   24287.05737402  .00014444  00000-0  77400-2 0  9996
2 36327  82.5003  51.6770 0007817  48.6546 311.5302 14.12921146 50879
Source of the keplerian elements: AFSPC